Fargo, ND

6:42 PM CST on December 10, 2016 (GMT -0600)
Hector International

Weather History for KFAR - November, 2011

Change the Weather History Date:

Wednesday, November 30, 2011

  Actual Average Record
Temperature  
Mean Temperature 29 °F 20 °F  
Max Temperature 36 °F 28 °F 53 °F (1990)
Min Temperature 22 °F 12 °F -27 °F (1905)
Degree Days  
Heating Degree Days 36 45  
Month to date heating degree days 929 1086  
Since 1 July heating degree days 1546 1962  
Cooling Degree Days 0 0  
Month to date cooling degree days 0 0  
Year to date cooling degree days 694 551  
Moisture  
Dew Point 22 °F    
Average Humidity 71    
Maximum Humidity 85    
Minimum Humidity 56    
Precipitation  
Precipitation 0.02 in 0.03 in 0.54 in (1908)
Month to date precipitation 0.26 1.00  
Year to date precipitation 23.59 21.78  
Snow  
Snow T in 0.40 in 5.00 in (1908)
Month to date snowfall 0.6 7.9  
Since 1 July snowfall 0.6 8.6  
Since 1 September snowfall 0.6 8.6  
Snow Depth 0.00 in    
Sea Level Pressure  
Sea Level Pressure 30.01 in    
Wind  
Wind Speed 11 mph (North)    
Max Wind Speed 24 mph    
Max Gust Speed 29 mph    
Visibility 8 miles    
Events Snow    
T = Trace of Precipitation, MM = Missing Value Source: NWS Daily Summary

Daily Weather History Graph

Daily Weather History Graph

Search for Another Location

Airport or City:

Trip Planner

Search our weather history database for the weather conditions in past years. The results will help you decide how hot, cold, wet, or windy it might be!

Date:

Astronomy

Nov. 30, 2011 Rise Set
Actual Time 7:50 AM CST 4:41 PM CST
Civil Twilight 7:15 AM CST 5:15 PM CST
Nautical Twilight 6:37 AM CST 5:53 PM CST
Astronomical Twilight 6:01 AM CST 6:30 PM CST
Moon 11:57 AM CST (11/30) 10:52 PM CST (11/30)
Length of Visible Light 9h 59m
Length of Day
8h 50m
Waxing Crescent, 34% of the Moon is Illuminated
Nov 30
Waxing Crescent
Dec 2
First Quarter
Dec 10
Full
Dec 17
Last Quarter
Dec 24
New

Hourly Weather History & Observations

Time (CST) Temp. Windchill Dew Point Humidity Pressure Visibility Wind Dir Wind Speed Gust Speed Precip Events Conditions
12:53 AM 24.1 °F 16.0 °F 16.0 °F 71% 29.98 in 10.0 mi South 6.9 mph - N/A   Clear
1:53 AM 21.9 °F 12.5 °F 15.1 °F 75% 29.96 in 10.0 mi South 8.1 mph - N/A   Clear
2:53 AM 23.0 °F 13.9 °F 16.0 °F 74% 29.95 in 10.0 mi South 8.1 mph - N/A   Clear
3:53 AM 25.0 °F 20.7 °F 17.1 °F 72% 29.94 in 10.0 mi South 3.5 mph - N/A   Clear
4:53 AM 27.0 °F 23.0 °F 18.0 °F 69% 29.91 in 10.0 mi South 3.5 mph - N/A   Clear
5:53 AM 28.0 °F 22.8 °F 18.0 °F 66% 29.92 in 10.0 mi South 4.6 mph - N/A   Overcast
6:53 AM 28.0 °F - 19.9 °F 72% 29.92 in 10.0 mi Calm Calm - 0.00 in   Overcast
7:53 AM 28.0 °F - 21.0 °F 75% 29.92 in 10.0 mi Calm Calm - 0.00 in   Overcast
8:53 AM 30.0 °F 21.7 °F 21.0 °F 69% 29.94 in 10.0 mi NNW 9.2 mph - N/A   Overcast
9:53 AM 30.9 °F 21.7 °F 21.9 °F 69% 29.96 in 10.0 mi North 11.5 mph - N/A   Overcast
10:53 AM 33.1 °F 25.5 °F 21.9 °F 64% 29.97 in 10.0 mi NNE 9.2 mph - N/A   Overcast
11:53 AM 35.1 °F 27.4 °F 21.9 °F 59% 29.94 in 10.0 mi NNE 10.4 mph - N/A   Overcast
12:53 PM 35.1 °F 26.9 °F 23.0 °F 61% 29.95 in 10.0 mi North 11.5 mph - N/A   Overcast
1:53 PM 36.0 °F 28.0 °F 23.0 °F 59% 29.96 in 10.0 mi North 11.5 mph - N/A   Overcast
2:41 PM 33.8 °F 23.9 °F 26.6 °F 75% 29.94 in 1.8 mi North 15.0 mph - 0.00 in Snow Light Snow
2:51 PM 33.8 °F 24.8 °F 26.6 °F 75% 29.94 in 1.5 mi North 12.7 mph - 0.00 in Snow Light Snow
2:53 PM 33.1 °F 23.0 °F 27.0 °F 78% 29.99 in 1.5 mi North 15.0 mph - 0.00 in Snow Light Snow
3:25 PM 33.8 °F 24.8 °F 28.4 °F 81% 29.96 in 1.2 mi North 12.7 mph - 0.01 in Snow Light Snow
3:53 PM 32.0 °F 23.6 °F 28.0 °F 85% 30.02 in 1.2 mi North 10.4 mph - 0.02 in Snow Light Snow
4:10 PM 32.0 °F 22.5 °F 28.4 °F 87% 29.98 in 3.0 mi North 12.7 mph - 0.00 in Snow Light Snow
4:17 PM 32.0 °F 22.5 °F 26.6 °F 80% 29.98 in 5.0 mi North 12.7 mph - 0.00 in   Haze
4:53 PM 32.0 °F 23.6 °F 26.1 °F 79% 30.04 in 10.0 mi North 10.4 mph - 0.00 in   Overcast
5:53 PM 33.1 °F 22.6 °F 26.1 °F 75% 30.08 in 9.0 mi North 16.1 mph 24.2 mph N/A   Overcast
6:53 PM 32.0 °F 22.1 °F 26.1 °F 79% 30.12 in 5.0 mi North 13.8 mph - 0.00 in Snow Light Snow
7:53 PM 32.0 °F 22.1 °F 24.1 °F 73% 30.16 in 10.0 mi North 13.8 mph - 0.00 in   Overcast
8:53 PM 30.9 °F 19.8 °F 19.9 °F 64% 30.19 in 10.0 mi North 16.1 mph 24.2 mph N/A   Overcast
9:53 PM 30.0 °F 16.9 °F 21.0 °F 69% 30.22 in 10.0 mi North 21.9 mph 26.5 mph N/A   Overcast
10:53 PM 28.9 °F 15.8 °F 21.0 °F 72% 30.27 in 10.0 mi North 20.7 mph 27.6 mph N/A   Overcast
11:53 PM 25.0 °F 11.7 °F 18.0 °F 75% 30.31 in 10.0 mi North 17.3 mph - N/A   Scattered Clouds